Weather History for Hobbs, NM

Change the Weather History Date:

Sunday, September 9, 2012

  Actual Average Record
Temperature  
Mean Temperature 67 °F -  
Max Temperature 75 °F 87 °F 96 °F (2000)
Min Temperature 59 °F 61 °F 50 °F (1956)
Cooling Degree Days 2    
Growing Degree Days 17 (Base 50)    
Moisture  
Dew Point 48 °F    
Average Humidity 58    
Maximum Humidity 88    
Minimum Humidity 29    
Precipitation  
Precipitation 0.01 in - - ()
Sea Level Pressure  
Sea Level Pressure 30.27 in    
Wind  
Wind Speed 5 mph (NW)    
Max Wind Speed 10 mph    
Max Gust Speed -    
Visibility 10 miles    
Events Rain    
Averages and records for this station are not official NWS values.
T = Trace of Precipitation, MM = Missing Value Source: NWS Daily Summary

Daily Weather History Graph

Daily Weather History Graph

Search for Another Location

Airport:

Trip Planner

Search our weather history database for the weather conditions in past years. The results will help you decide how hot, cold, wet, or windy it might be!

Date:

Astronomy

Sep. 09, 2012 Rise Set
Actual Time 6:33 AM MDT 7:06 PM MDT
Civil Twilight 6:08 AM MDT 7:31 PM MDT
Nautical Twilight 5:39 AM MDT 8:00 PM MDT
Astronomical Twilight 5:09 AM MDT 8:29 PM MDT
Moon 12:18 AM MDT (9/9) 2:39 PM MDT (9/9)
Length of Visible Light 13h 22m
Length of Day
12h 33m
Last Quarter, 39% of the Moon is Illuminated
Sep 9
Last Quarter
Sep 15
New
Sep 22
First Quarter
Sep 29
Full
Oct 8
Last Quarter

Hourly Weather History & Observations

Time (MDT) Temp. Dew Point Humidity Pressure Visibility Wind Dir Wind Speed Gust Speed Precip Events Conditions
12:15 AM 60.8 °F 48.2 °F 63% 30.30 in 10.0 mi NW 8.1 mph - N/A   Clear
12:35 AM 59.0 °F 48.2 °F 67% 30.30 in 10.0 mi WNW 9.2 mph - N/A   Clear
12:55 AM 59.0 °F 48.2 °F 67% 30.30 in 10.0 mi WNW 10.4 mph - N/A   Clear
1:15 AM 59.0 °F 50.0 °F 72% 30.30 in 10.0 mi WNW 8.1 mph - N/A   Scattered Clouds
1:35 AM 59.0 °F 50.0 °F 72% 30.30 in 10.0 mi NW 10.4 mph - N/A   Mostly Cloudy
1:55 AM 59.0 °F 50.0 °F 72% 30.30 in 10.0 mi NW 8.1 mph - N/A   Scattered Clouds
2:15 AM 59.0 °F 50.0 °F 72% 30.30 in 10.0 mi NW 6.9 mph - N/A   Partly Cloudy
2:35 AM 59.0 °F 51.8 °F 77% 30.30 in 10.0 mi NW 6.9 mph - N/A Rain Light Rain
2:55 AM 59.0 °F 51.8 °F 77% 30.29 in 10.0 mi NW 4.6 mph - N/A   Mostly Cloudy
3:15 AM 59.0 °F 51.8 °F 77% 30.29 in 10.0 mi NW 6.9 mph - N/A   Overcast
3:35 AM 59.0 °F 51.8 °F 77% 30.29 in 10.0 mi WNW 5.8 mph - N/A   Mostly Cloudy
3:55 AM 59.0 °F 51.8 °F 77% 30.29 in 10.0 mi NW 5.8 mph - N/A   Overcast
4:15 AM 59.0 °F 51.8 °F 77% 30.29 in 10.0 mi Calm Calm - N/A   Mostly Cloudy
4:35 AM 59.0 °F 53.6 °F 82% 30.29 in 9.0 mi NW 9.2 mph - N/A Rain Light Rain
4:55 AM 59.0 °F 55.4 °F 88% 30.30 in 10.0 mi NW 4.6 mph - 0.01 in Rain Light Rain
5:50 AM 59.0 °F 55.4 °F 88% 30.29 in 10.0 mi NW 8.1 mph - N/A   Mostly Cloudy
6:50 AM 59.0 °F 55.4 °F 88% 30.30 in 10.0 mi Calm Calm - N/A   Mostly Cloudy
7:50 AM 59.0 °F 53.6 °F 82% 30.31 in 10.0 mi Calm Calm - N/A   Mostly Cloudy
8:50 AM 60.8 °F 53.6 °F 77% 30.33 in 10.0 mi Calm Calm - N/A   Mostly Cloudy
10:45 AM 64.4 °F 50.0 °F 59% 30.34 in 10.0 mi North 4.6 mph - N/A   Mostly Cloudy
11:50 AM 66.2 °F 46.4 °F 49% 30.33 in 10.0 mi Calm Calm - N/A   Mostly Cloudy
12:50 PM 71.6 °F 42.8 °F 35% 30.31 in 10.0 mi Calm Calm - N/A   Mostly Cloudy
1:50 PM 71.6 °F 41.0 °F 33% 30.29 in 10.0 mi Calm Calm - N/A   Scattered Clouds
2:45 PM 71.6 °F 60.8 °F 69% 30.27 in 10.0 mi Calm Calm - N/A   Scattered Clouds
4:00 PM 73.4 °F 41.0 °F 31% 30.24 in 10.0 mi Calm Calm - N/A   Scattered Clouds
4:45 PM 75.2 °F 41.0 °F 29% 30.24 in 10.0 mi Calm Calm - N/A   Scattered Clouds
5:45 PM 73.4 °F 42.8 °F 33% 30.22 in 10.0 mi Calm Calm - N/A   Scattered Clouds
6:15 PM 75.2 °F 44.6 °F 34% 30.21 in 10.0 mi Calm Calm - N/A   Partly Cloudy
6:35 PM 73.4 °F 44.6 °F 36% 30.21 in 10.0 mi Calm Calm - N/A   Clear
7:15 PM 71.6 °F 44.6 °F 38% 30.21 in 10.0 mi Calm Calm - N/A   Clear
7:35 PM 69.8 °F 44.6 °F 40% 30.21 in 10.0 mi Calm Calm - N/A   Clear
7:55 PM 68.0 °F 44.6 °F 43% 30.21 in 10.0 mi Calm Calm - N/A   Clear
8:15 PM 66.2 °F 42.8 °F 43% 30.22 in 10.0 mi Calm Calm - N/A   Clear
8:35 PM 68.0 °F 44.6 °F 43% 30.22 in 10.0 mi Calm Calm - N/A   Partly Cloudy
8:55 PM 66.2 °F 44.6 °F 46% 30.23 in 10.0 mi Calm Calm - N/A   Mostly Cloudy
9:15 PM 66.2 °F 44.6 °F 46% 30.23 in 10.0 mi Calm Calm - N/A   Scattered Clouds
9:35 PM 66.2 °F 44.6 °F 46% 30.23 in 10.0 mi Calm Calm - N/A   Clear
9:55 PM 64.4 °F 44.6 °F 49% 30.23 in 10.0 mi Calm Calm - N/A   Clear
10:15 PM 66.2 °F 44.6 °F 46% 30.23 in 10.0 mi Calm Calm - N/A   Clear
10:35 PM 64.4 °F 44.6 °F 49% 30.23 in 10.0 mi Calm Calm - N/A   Clear
10:55 PM 62.6 °F 44.6 °F 52% 30.23 in 10.0 mi Calm Calm - N/A   Clear
11:15 PM 62.6 °F 44.6 °F 52% 30.23 in 10.0 mi Calm Calm - N/A   Clear
11:35 PM 60.8 °F 44.6 °F 55% 30.23 in 10.0 mi Calm Calm - N/A   Partly Cloudy
11:55 PM 60.8 °F 44.6 °F 55% 30.23 in 10.0 mi Calm Calm - N/A   Mostly Cloudy